www.pogodaiklimat.ru

ПОГОДА в Джефферсон-Сити, MO

  • Прогноз погоды в Джефферсон-Сити
  • Монитор погоды в Джефферсон-Сити
  • Климат в Джефферсон-Сити

АРХИВ ПОГОДЫ в Джефферсон-Сити

Время (UTC), дата Ветер
(напр.,м/с)
 
Видим.   Явления Облачность Т
(С)
Тd
(С)
f
(%)
Тe
(С)
Тes
(С)
Комфортность

P
(гПа)

Po
(гПа)
Тmin
(С)
Tmax
(С)
R
(мм)
SD
(см)
15:53 17.05 Ю  16 км    ясно  +27.2  +16.7  53  +31  +44  душно  1009.8  991.2         
16:53 17.05 ЮЗ  6
{10} 
16 км    ясно  +28.3  +16.1  48  +32  +37  душно  1009.3  990.9  +20.6  +28.9     
17:53 17.05 Ю  6
{10} 
16 км    5/5 1800 м  +29.4  +17.2  48  +33  +36  душно  1008.6  990.2         
18:53 17.05 Ю  16 км    5/5 1650 м  +30.0  +15.6  42  +33  +36  душно  1008.1  989.5         
19:53 17.05 ЮЗ  6
{11} 
16 км    5/5 1950 м  +30.6  +13.9  36  +32  +34  жарко  1007.3  988.9         
20:53 17.05 Ю  6
{9} 
16 км    8/0 2100 м
[средняя] 
+30.0  +15.0  40  +32  +34  жарко  1007.0  988.5         
21:53 17.05 Ю  16 км    2/0 2400 м
[средняя] 
+30.0  +15.6  42  +33  +37  душно  1006.6  988.2         
22:53 17.05 Ю  16 км    2/0 2100 м
[средняя] 
+29.4  +15.0  42  +32  +34  душно  1006.4  987.9  +28.3  +31.1     
23:53 17.05 ЮВ  16 км    ясно  +27.8  +15.6  47  +31  +32  душно  1006.4  987.9         
00:53 18.05 ЮВ  16 км    2/0 2100 м
[средняя] 
+26.1  +15.6  52  +29  +29  жарко  1006.9  988.5         
01:53 18.05 ЮВ  16 км    ясно  +24.4  +14.4  54  +27  +27  жарко  1007.0  988.5         
02:53 18.05 Ю  16 км    ясно  +24.4  +14.4  54  +27  +27  жарко  1007.0  988.5         
03:53 18.05 ЮВ  16 км    ясно  +23.3  +14.4  57  +27  +27  душно  1007.0  988.5         
04:53 18.05 ЮВ  16 км    ясно  +22.8  +14.4  59  +26  +26  жарко  1006.9  988.5  +22.8  +29.4     
05:53 18.05 ЮВ  16 км    ясно  +21.7  +14.4  63  +25  +25  комфорт  1006.8  988.5         
06:53 18.05 ЮВ  16 км    ясно  +21.1  +14.4  66  +24  +24  комфорт  1006.7  988.2         
07:53 18.05 ЮВ  16 км    ясно  +20.0  +14.4  70  +22  +22  комфорт  1006.6  988.2         
08:53 18.05 ЮВ  16 км    10/0 2100 м
[средняя] 
+20.6  +14.4  68  +23  +23  комфорт  1006.5  988.2         
09:53 18.05 ЮВ  16 км    8/2 1500 м
[средняя] 
+20.6  +13.9  65  +23  +23  комфорт  1006.8  988.5         
10:53 18.05 Ю  16 км    5/5 1650 м
[средняя] 
+21.7  +14.4  63  +25  +25  комфорт  1007.1  988.5  +19.4  +22.8     
11:53 18.05 Ю  16 км    10/8 1800 м
[средняя] 
+22.2  +15.0  64  +26  +26  душно  1006.7  988.2         
12:53 18.05 Ю  8
{11} 
16 км    5/0 2400 м
[средняя] 
+23.9  +16.1  62  +27  +27  жарко  1006.2  987.9         
13:53 18.05 Ю  16 км    10/10 1170 м  +24.4  +17.2  64  +28  +28  душно  1006.3  987.9         
15:24 18.05 Ю  7
{10} 
16 км  гроза  10/0 2100 м
[средняя] 
+25.6  +17.8  62  +30  +31  душно    986.9         
15:39 18.05 Ю  16 км    10/0 2100 м
[средняя] 
+25.0  +17.8  64  +29  +31  душно    986.9         
15:53 18.05 Ю  4
{9} 
16 км    10/0 2100 м
[средняя] 
+25.0  +17.8  64  +29  +32  душно  1005.1  986.5         
16:53 18.05 Ю  6
{13} 
16 км    5/0 2400 м
[средняя] 
+27.8  +18.3  56  +33  +36  очень
душно 
1004.3  985.9  +21.7  +27.8     
17:53 18.05 Ю  9
{15} 
16 км    8/2 1380 м
[средняя] 
+28.9  +17.2  49  +33  +33  очень
душно 
1003.7  985.2         
18:53 18.05 Ю  8
{13} 
16 км    5/2 1800 м
[средняя] 
+28.9  +17.2  49  +33  +34  очень
душно 
1003.2  984.9         
19:53 18.05 Ю  8
{13} 
16 км    ясно  +29.4  +16.7  46  +33  +34  душно  1002.4  983.9         
20:53 18.05 Ю  8
{13} 
16 км    2/2 1800 м
[средняя] 
+28.3  +16.7  49  +32  +33  душно  1001.8  983.6         
21:48 18.05 Ю  4
{10} 
16 км  гроза  10/5 1500 м
[средняя] 
+27.0  +17.0  54  +31  +31  душно    982.9         
21:53 18.05 ЮЗ  7
{11} 
16 км  гроза  10/5 1500 м
[средняя] 
+27.2  +17.2  54  +31  +31  душно  1001.6  983.2         
21:56 18.05 З  17
{24} 
4 км  гроза, слабый дождь, шквал  10/8 330 м
[средняя] 
+25.0  +16.7  60  +29  +29  душно             
22:01 18.05 З  11
{24} 
2 км  гроза с сильным дождем, дымка, шквал  10/8 660 м
[средняя] 
+18.9  +16.7  87  +19  +19      984.6         
22:08 18.05 З  6
{16} 
4 км  гроза с дождем, дымка  10/8 1080 м
[средняя] 
+18.3  +16.1  87  +18  +18      984.6         
22:15 18.05 З  14 км  гроза со слабым дождем  10/8 570 м
[средняя] 
+18.9  +16.7  87  +20  +20               
22:23 18.05 З  16 км  слабый дождь  8/5 870 м
[средняя] 
+18.9  +16.7  87  +20  +21               
22:53 18.05 ЮВ  16 км  слабый дождь  2/0 3300 м
[средняя] 
+18.9  +16.7  87  +21  +25  комфорт  1002.5  983.9  +18.3  +29.4     
23:53 18.05 ЮВ  16 км  слабый дождь  8/0 3300 м
[средняя] 
+18.9  +16.7  87  +20  +20    1001.4  982.9         
00:38 19.05 Ю  16 км    8/8 300 м  +18.3  +16.7  90  +18  +18      984.9         
00:53 19.05 Ю  16 км  слабый дождь  10/8 300 м
[средняя] 
+18.3  +16.7  90  +19  +19    1003.2  984.9         
01:09 19.05 В  16 км  слабый дождь  8/2 300 м
[средняя] 
+18.3  +16.1  87  +18  +18      983.6         
01:53 19.05   16 км    5/5 330 м  +18.3  +16.1  87  +19  +19    1002.7  984.2      0.5   
02:53 19.05 ЮВ  16 км    ясно  +17.8  +16.1  90  +18  +18    1002.9  984.6         
03:53 19.05 ЮВ  16 км    ясно  +17.8  +15.6  87  +18  +18    1002.9  984.6         
04:53 19.05 ЮВ  16 км    2/0 3000 м
[средняя] 
+17.8  +15.6  87  +19  +19    1002.2  983.9  +17.8  +18.9  0.8   
05:53 19.05 ЮВ  16 км  слабый дождь  10/10 1110 м  +17.2  +15.6  90  +17  +17    1002.2  983.9         

 

Местоположение метеостанции Jefferson City Memorial Airport: широта 38.5944 долгота -92.1558 высота над уровнем моря 167 м.

В архиве по умолчанию представлена погода в Джефферсон-Сити за последние 1-2 суток. Обновление информации о фактической погоде в базе происходит ежечасно! Архивные данные за месяц целиком и за предыдущие месяцы Вы можете получить, выбрав интересующий диапазон дат из раскрывающегося списка и нажав кнопку "Ввод!".

Внимание! Архив погоды МЕТАР в базе сайта хранится не более 60 дней. Нет смысла пытаться выбрать более раннюю дату.

Внимание! Время в таблицах - всемирное. Для получения местного времени необходимо прибавить поправку, которая в Джефферсон-Сити равна -6 ч.

Ветер - указаны скорость ветра в м/с и направление, откуда дует ветер: С - северный, СВ - северо-восточный, В - восточный, ЮВ - юго-восточный, Ю - южный, ЮЗ - юго-западный, З - западный, СЗ - северо-западный.
Видимость - горизонтальная дальность видимости в метрах или километрах. При видимости от 1 до 10 км при отсутствии осадков обычно наблюдается дымка, при ухудшении видимости до 1 км и менее - туман. В сухую погоду видимость может ухудшаться дымом, пылью или мглою.
Атмосферные явления - указаны явления, наблюдавшиеся в указанный момент времени.
Облачность - указаны через наклонную черту верхняя и нижняя облачность в баллах и высота нижней границы облаков в метрах. Внимание: облачность, как и прочие метеорологические величины в США измеряются автоматическими метеостанциями. Указанные значения в баллах носят условный характер и показывают процент времени, в течение которого, в среднем, лазерный луч высотомера отражался от облаков обратно.
T - Температура воздуха - температура, измеренная на высоте 2 м над землей.
Td - Температура точки росы - температура, при понижении до которой содержащийся в воздухе водяной пар достигнет насыщения.
f - Относительная влажность воздуха - влажноcть воздуха, измеренная на высоте 2 м над землей.
Te - Эффективная температура - температура, которую ощущает одетый по сезону человек в тени. Характеристика душности погоды. При расчете учитывается влияние влажности воздуха и скорости ветра на теплоощущения человека.
Tes - Эффективная температура на солнце - температура, которую ощущает человек, с поправкой на солнечный нагрев. Характеристика знойности погоды. Зависит от высоты солнца над горизонтом, облачности и скорости ветра. Ночью, в пасмурную погоду, а также при ветре 12 м/с и более поправка равна нулю.
P - Атмосферное давление - приведенное к уровню моря атмосферное давление.
Po - Атмосферное давление - измеренное на уровне метеостанции атмосферное давление.
Tmin - Минимальная температура - минимум температуры воздуха на высоте 2 м над землей.
Tmax - Максимальная температура - максимум температуры воздуха на высоте 2 м над землей.
R - Количество осадков - Количество выпавших осадков за 3 или 6 часов, мм.
SD - Снежный покров - Высота снежного покрова, см.